Location: Little Chesterford
(52.0500°N, 0.1833°E)
Time: 00:18:35
(UTC+00:00)

Cosmos 2369 Rocket - Visible Passes

Search period start: 19 April 2024 00:00
Search period end: 29 April 2024 00:00
Orbit: 829 x 851 km, 71.0° (Epoch: 18 April)

Date Brightness Start Highest point End Pass type
(mag) Time Alt. Az. Time Alt. Az. Time Alt. Az.
19 Apr 5.3 00:12:30 10° N 00:14:48 12° NNE 00:17:05 10° NE visible
19 Apr 4.3 01:56:04 10° NNW 02:00:52 28° NE 02:05:38 10° E visible
19 Apr 2.1 03:39:52 10° NNW 03:45:30 77° WSW 03:51:04 10° SSE visible
19 Apr 4.4 20:21:30 10° W 20:26:22 28° NW 20:31:14 10° NNE visible
19 Apr 5.3 22:10:03 10° NW 22:12:26 13° NNW 22:14:47 10° N visible
19 Apr 5.3 23:56:58 10° N 23:59:11 12° NNE 00:01:23 10° NE visible
20 Apr 4.3 01:40:33 10° NNW 01:45:17 27° NE 01:50:00 10° E visible
20 Apr 2.1 03:24:20 10° NNW 03:29:58 81° WSW 03:35:33 10° SSE visible
20 Apr 4.4 20:05:52 10° WSW 20:10:48 29° NW 20:15:43 10° NNE visible
20 Apr 5.3 21:54:21 10° NW 21:56:48 13° NNW 21:59:15 10° N visible
20 Apr 5.3 23:41:26 10° N 23:43:33 12° NNE 23:45:41 10° NE visible
21 Apr 4.3 01:25:01 10° NNW 01:29:43 26° NE 01:34:22 10° E visible
21 Apr 2.1 03:08:47 10° NNW 03:14:26 85° WSW 03:20:01 10° SSE visible
21 Apr 4.4 19:50:15 10° WSW 19:55:13 31° NW 20:00:12 10° NNE visible
21 Apr 5.2 21:38:39 10° NW 21:41:11 13° NNW 21:43:44 10° N visible
21 Apr 5.2 23:25:54 10° N 23:27:56 12° NNE 23:29:58 10° NNE visible
22 Apr 4.4 01:09:30 10° NNW 01:14:08 25° NE 01:18:43 10° E visible
22 Apr 2.1 02:53:15 10° NNW 02:58:54 88° WSW 03:04:29 10° SSE visible
22 Apr 5.2 21:22:57 10° NW 21:25:34 13° NNW 21:28:11 10° N visible
22 Apr 5.2 23:10:22 10° N 23:12:19 12° N 23:14:16 10° NNE visible
23 Apr 4.4 00:53:59 10° NNW 00:58:32 24° NE 01:03:04 10° E visible
23 Apr 2.2 02:37:42 10° NNW 02:43:21 88° ENE 02:48:57 10° SSE visible
23 Apr 5.1 21:07:15 10° NW 21:09:57 13° NNW 21:12:40 10° N visible
23 Apr 5.2 22:54:49 10° N 22:56:42 12° N 22:58:33 10° NNE visible
24 Apr 4.4 00:38:28 10° NNW 00:42:57 24° NE 00:47:24 10° E visible
24 Apr 2.2 02:22:10 10° NNW 02:27:49 84° ENE 02:33:24 10° SSE visible
24 Apr 3.4 04:07:15 10° NW 04:11:08 19° W 04:15:00 10° SW visible
24 Apr 5.1 20:51:33 10° NW 20:54:20 14° NNW 20:57:08 10° N visible
24 Apr 5.2 22:39:17 10° N 22:41:04 11° N 22:42:52 10° NNE visible
25 Apr 4.4 00:22:57 10° NNW 00:27:22 23° NE 00:31:45 10° E visible
25 Apr 2.2 02:06:38 10° NNW 02:12:17 81° ENE 02:17:52 10° SSE visible
25 Apr 3.4 03:51:37 10° NW 03:55:39 21° W 03:59:39 10° SSW visible
25 Apr 5.0 20:35:50 10° NW 20:38:43 14° NNW 20:41:36 10° N visible
25 Apr 5.1 22:23:44 10° N 22:25:27 11° N 22:27:10 10° NNE visible
26 Apr 4.4 00:07:26 10° NNW 00:11:46 22° NE 00:16:05 10° E visible
26 Apr 2.3 01:51:06 10° NNW 01:56:44 77° ENE 02:02:19 10° SE visible
26 Apr 3.3 03:36:00 10° NW 03:40:09 22° WSW 03:44:17 10° SSW visible
26 Apr 5.0 20:20:09 10° NW 20:23:07 14° NNW 20:26:05 10° NNE visible
26 Apr 5.1 22:08:10 10° N 22:09:50 11° N 22:11:29 10° NNE visible
26 Apr 4.5 23:51:55 10° NNW 23:56:11 21° NE 00:00:26 10° E visible
27 Apr 2.3 01:35:34 10° NNW 01:41:12 74° ENE 01:46:47 10° SE visible
27 Apr 3.3 03:20:23 10° NW 03:24:40 23° WSW 03:28:55 10° SSW visible
27 Apr 5.0 20:04:27 10° NW 20:07:30 15° NNW 20:10:34 10° NNE visible
27 Apr 5.1 21:52:37 10° N 21:54:12 11° N 21:55:47 10° NNE visible
27 Apr 4.5 23:36:24 10° NNW 23:40:35 21° NNE 23:44:45 10° E visible
28 Apr 2.4 01:20:01 10° NNW 01:25:39 70° NE 01:30:53 12° SE visible
28 Apr 3.2 03:04:46 10° NW 03:09:10 24° WSW 03:12:34 14° SSW visible
28 Apr 5.1 21:37:03 10° N 21:38:35 11° N 21:40:06 10° NNE visible
28 Apr 4.5 23:20:53 10° NNW 23:25:00 20° NNE 23:29:05 10° E visible
